Location: Del Oro Observatory
(38.3044°N, 104.8119°W)
Time: 22:23:51
(UTC-07:00)

Daily predictions for brighter satellites

Satellite Brightness Start Highest point End
(mag) Time Altitude Azimuth Time Altitude Azimuth Time Altitude Azimuth
Meteor 1-11 Rocket 4.3 18:09:55 10° SSE 18:15:14 39° E 18:20:40 10° NNE
Cosmos 1536 Rocket 3.7 18:13:13 10° N 18:17:38 58° E 18:22:03 10° SSE
Cosmos 1954 Rocket 4.0 18:17:44 10° SSW 18:22:54 78° ESE 18:28:08 10° NNE
Cosmos 1833 4.2 18:18:43 10° SSW 18:24:25 80° ESE 18:30:05 10° NNE
Cosmos 1340 2.8 18:21:17 10° N 18:24:59 51° E 18:28:40 10° SSE
Cosmos 1238 Rocket 2.8 18:22:35 10° NNE 18:25:18 31° E 18:28:02 10° SE
Cosmos 1461 4.0 18:24:15 10° NW 18:28:08 46° WSW 18:32:06 10° S
NOSS 8 (F) 4.4 18:24:39 10° SSW 18:28:11 68° ESE 18:31:43 10° NE
SL-16 R/B 3.3 18:27:04 10° NNW 18:32:31 50° WSW 18:37:57 10° S
Cosmos 2333 Rocket 3.9 18:29:34 10° NNE 18:32:40 15° NE 18:35:00 12° ENE
Cosmos 1300 Rocket 3.5 18:38:28 10° S 18:42:52 78° E 18:47:19 10° N
Genesis I 3.8 18:42:45 10° NNW 18:46:26 37° NE 18:49:02 17° ESE
Cosmos 2322 Rocket 4.0 18:43:01 10° NW 18:48:03 35° WSW 18:53:04 10° SSW
FENGYUN 3A 3.7 18:44:05 10° SSE 18:49:20 55° ENE 18:54:38 10° N
Resurs 01 Rocket 2.0 18:45:41 10° SE 18:49:47 40° ENE 18:53:54 10° N
Helios 1A 4.2 18:50:39 20° E 18:51:30 21° ENE 18:54:38 10° NNE
FengYun 1-2 T 4.2 18:47:52 10° SSE 18:53:13 59° ENE 18:58:37 10° N
SJ-6B 2.8 18:49:50 10° SSE 18:53:50 87° WSW 18:57:48 10° NNW
NOAA 12 4.5 18:48:39 10° S 18:53:56 70° WSW 18:59:16 10° NNW
Hubble Space Telescope 3.0 18:54:00 10° SSW 18:56:01 13° SSE 18:57:31 11° SE
GPS 2-04 Rocket1 3.4 18:52:27 10° WSW 18:56:32 45° SSE 18:58:47 24° ESE
Okean 2 4.3 18:57:34 10° NNE 19:01:11 28° ENE 19:01:43 27° E
Helios 1B rocket 3.3 18:57:39 10° NE 19:01:13 27° E 19:04:45 10° SSE
GEOS 3 Rocket 3.6 18:57:44 10° NE 19:02:59 67° ESE 19:08:13 10° SSW
Cosmos 1633 3.9 19:00:00 10° SSW 19:03:30 42° W 19:07:02 10° N
Meteor 1-19 Rocket 4.3 18:59:07 10° N 19:04:50 82° W 19:10:36 10° S
Resurs 1-3 3.8 19:00:46 10° SSE 19:04:59 49° ENE 19:09:13 10° N
Cosmos 2322 3.8 19:00:44 10° NNW 19:06:28 78° WSW 19:12:09 10° SSE
Cosmos 1741 Rocket 4.0 19:02:50 10° SSW 19:08:03 89° WNW 19:13:18 10° NNE
CZ-2D R/B 3.6 19:09:07 32° ESE 19:10:13 41° ENE 19:13:50 10° N
Cosmos 405 Rocket 4.2 19:07:14 10° NNE 19:09:28 22° NE 19:09:28 22° NE
Cosmos 2181 Rocket 4.4 19:05:37 10° NNW 19:11:50 69° W 19:18:08 10° S
ALOS 2.3 19:08:11 10° S 19:12:52 84° WSW 19:17:34 10° NNW
Abrixas rocket 2.2 19:09:49 10° WSW 19:13:11 81° NNW 19:14:08 44° NE
H-2A R/B 2.6 19:09:48 11° SSE 19:13:20 63° ENE 19:17:03 10° N
Gbstr 26 Del rocket 3.8 19:09:56 10° WSW 19:13:32 38° NNW 19:15:48 19° NNE
OTV 4 2.5 19:11:45 10° SSW 19:13:15 17° S 19:13:15 17° S
BREEZE-M DEB (TANK) 2.6 19:15:07 10° NW 19:17:51 60° NE 19:19:59 32° ESE
Okean 1 Rocket 3.9 19:15:29 10° SSW 19:19:52 53° W 19:24:16 10° N
BREEZE-M DEB (TANK) 2.3 19:16:26 10° WSW 19:20:25 69° NW 19:20:48 57° NNE
Cosmos 1536 3.5 19:18:24 10° SSW 19:22:18 56° W 19:26:15 10° N
Cosmos 2074 Rocket 3.9 19:16:32 10° S 19:22:47 84° E 19:29:05 10° N
Atlas Centaur 2 4.3 19:19:55 10° S 19:22:53 13° SSE 19:23:41 13° SSE
COSMOS 2428 2.6 19:17:23 10° NNW 19:23:05 75° ENE 19:27:30 17° SSE
Cosmos 2237 4.2 19:17:27 10° NNW 19:23:12 85° WSW 19:28:54 10° SSE
Cosmos 2333 4.2 19:17:35 10° NNW 19:23:18 66° ENE 19:26:55 23° SE
Cosmos 2237 Rocket 3.3 19:19:21 10° N 19:23:53 26° NE 19:23:53 26° NE
Cosmos 1892 Rocket 4.2 19:21:54 10° N 19:25:08 36° NE 19:25:08 36° NE
Cosmos 1570 Rocket 4.1 19:21:14 10° NNW 19:26:28 79° WSW 19:31:41 10° SSE
Meteor 2-4 Rocket 3.8 19:21:05 10° NNW 19:26:37 74° W 19:31:57 10° S
Cosmos 2184 Rocket 3.9 19:20:40 10° S 19:26:59 87° E 19:33:17 10° N
Meteor 1-23 Rocket 4.2 19:21:21 10° N 19:27:11 89° E 19:32:55 10° S
Tiangong 2 4.1 19:28:24 10° SW 19:29:08 11° SW 19:29:51 10° SSW
Cosmos 1025 Rocket 3.2 19:32:11 10° NNW 19:36:33 73° W 19:40:56 10° S
BREEZE-M DEB (TANK) 4.4 19:32:10 10° WNW 19:36:50 28° WSW 19:38:11 20° SSW
Cosmos 2360 Rocket 3.7 19:33:03 10° NW 19:38:09 35° WSW 19:43:15 10° SSW
Cosmos 2219 Rocket 2.2 19:33:59 10° NNW 19:39:30 56° ENE 19:40:18 51° E
Cosmos 2219 3.8 19:34:49 10° SW 19:40:27 57° WNW 19:46:08 10° NNE
Cosmos 468 Rocket 4.1 19:37:34 10° N 19:42:32 52° ENE 19:42:32 52° ENE
Spot 2 Rocket 4.0 19:38:36 10° S 19:43:34 58° W 19:48:34 10° NNW
Cosmos 2227 Rocket 3.0 19:39:47 10° S 19:43:12 34° SSE 19:43:12 34° SSE
Nadezhda 3 Rocket 3.9 19:41:48 10° N 19:47:52 58° E 19:48:47 53° ESE
Meteor 2-13 Rocket 4.3 19:44:57 10° S 19:51:01 89° W 19:57:09 10° N
Cosmos 2341 Rocket 4.3 19:45:46 10° SSE 19:52:57 48° ENE 19:58:05 10° NNE
Cosmos 2154 Rocket 3.9 19:49:47 10° S 19:56:07 78° E 20:02:29 10° N
USA 229 DEB 3.7 19:49:46 10° NNW 19:56:58 90° E 19:59:39 43° SSE
USA 229 3.7 19:49:52 10° NNW 19:57:04 89° ENE 19:59:42 44° SSE
SL-16 R/B 4.1 19:54:01 10° N 19:55:51 17° NNE 19:55:51 17° NNE
Cosmos 2285 Rocket 4.1 19:52:10 10° NNW 19:58:37 77° WSW 20:02:16 27° S
Envisat 3.7 20:01:36 40° NNE 20:01:36 40° NNE 20:04:58 10° N
H-2A R/B (2) 3.9 20:01:02 10° SW 20:01:05 10° SW 20:01:05 10° SW
NOSS 0 Rocket 3.7 20:03:03 10° NNW 20:09:13 81° ENE 20:09:15 81° ENE
NOSS 3-1 (A) 4.4 20:02:24 10° NNW 20:09:35 44° NE 20:09:35 44° NE
Cosmos 2333 Rocket 2.3 20:11:54 10° NNW 20:17:04 72° NNW 20:17:04 72° NNW
Cosmos 1980 4.3 20:17:22 10° NNW 20:21:29 50° NNW 20:21:29 50° NNW
Resurs 01 Rocket 4.4 20:23:34 10° SW 20:26:24 17° W 20:29:13 10° NW
NOSS 3-1 (C) 4.0 20:21:07 10° NNW 20:28:32 69° NE 20:28:32 69° NE
Cosmos 2237 Rocket 4.0 21:02:55 10° NW 21:05:44 27° NW 21:05:44 27° NW
